Location: Sternwarte ZA, Rosenfeld-Brittheim
(48.2889°N, 8.6789°E)
Time: 15:16:03
(UTC+02:00)

ISS - Pass Details

Date: 18 October 2017
Orbit: 401 x 408 km, 51.6° (Epoch: 18 October)

Event Time Altitude Azimuth Distance (km) Brightness Sun altitude
Rises 18:57:18 0° 282° (WNW) 2,322 1.6 -5.2°
Reaches altitude 10° 19:00:23 10° 250° (WSW) 1,459 0.7 -5.7°
Maximum altitude 19:01:45 12° 225° (SW) 1,333 -0.3 -5.9°
Drops below altitude 10° 19:03:08 10° 200° (SSW) 1,456 -0.6 -6.2°
Sets 19:06:12 0° 168° (SSE) 2,312 0.0 -6.7°
